SV1KWZ-1 Weather Reports


time (UTC)temp
C
wind
direction
speed
KPH
gust
KPH
rain 1hr
cm
rain 24hr
cm
rain mn
cm
humidity
%
barometer
mb
20260906083003 33 209 3.2 9.7 0.00 0.00 0.00 22 1025.0
20260906082703 32 221 1.6 9.7 0.00 0.00 0.00 22 1024.9
20260906082404 32 235 3.2 9.7 0.00 0.00 0.00 22 1024.9
20260906082318 33 235 3.2 9.7 0.00 0.00 0.00 23 1025.1
20260906081803 32 229 3.2 6.4 0.00 0.00 0.00 23 1025.0
20260906081503 34 227 1.6 6.4 0.00 0.00 0.00 22 1025.1
20260906081203 33 231 1.6 4.8 0.00 0.00 0.00 22 1025.0
20260906080903 33 189 1.6 4.8 0.00 0.00 0.00 22 1025.0
20260906080603 33 138 1.6 4.8 0.00 0.00 0.00 22 1025.0
20260906080303 33 140 1.6 4.8 0.00 0.00 0.00 22 1024.9
20260906080217 32 141 1.6 4.8 0.00 0.00 0.00 23 1025.3
20260906075703 33 170 1.6 4.8 0.00 0.00 0.00 23 1025.1
20260906075403 33 218 1.6 4.8 0.00 0.00 0.00 22 1025.1
20260906075318 32 229 1.6 3.2 0.00 0.00 0.00 23 1025.2
20260906074803 32 204 1.6 3.2 0.00 0.00 0.00 23 1025.1
20260906074503 33 142 1.6 3.2 0.00 0.00 0.00 22 1025.1
20260906074203 32 139 1.6 3.2 0.00 0.00 0.00 23 1025.0
20260906073904 32 142 1.6 3.2 0.00 0.00 0.00 23 1025.1
20260906073603 32 143 1.6 3.2 0.00 0.00 0.00 24 1024.8
20260906073303 32 130 1.6 3.2 0.00 0.00 0.00 23 1024.6
20260906073004 32 127 1.6 3.2 0.00 0.00 0.00 24 1024.9
20260906072703 32 138 1.6 3.2 0.00 0.00 0.00 24 1025.0
20260906072403 32 164 1.6 3.2 0.00 0.00 0.00 23 1025.0
20260906072318 32 164 1.6 3.2 0.00 0.00 0.00 24 1024.9
20260906071803 32 159 0.0 3.2 0.00 0.00 0.00 24 1024.8
20260906071717 32 149 0.0 3.2 0.00 0.00 0.00 24 1024.8
20260906071203 32 101 0.0 1.6 0.00 0.00 0.00 24 1024.8
20260906070903 31 92 0.0 3.2 0.00 0.00 0.00 24 1024.9
20260906070603 31 89 1.6 3.2 0.00 0.00 0.00 25 1024.9
20260906070303 31 99 1.6 3.2 0.00 0.00 0.00 25 1024.8
20260906070004 31 105 1.6 3.2 0.00 0.00 0.00 25 1024.9
20260906065703 31 109 1.6 3.2 0.00 0.00 0.00 25 1024.9
20260906065403 31 96 1.6 3.2 0.00 0.00 0.00 25 1024.9
20260906065103 30 67 1.6 4.8 0.00 0.00 0.00 25 1024.8
20260906064803 30 69 1.6 4.8 0.00 0.00 0.00 27 1024.5
20260906064717 29 69 1.6 4.8 0.00 0.00 0.00 27 1024.7
20260906064203 30 75 1.6 3.2 0.00 0.00 0.00 27 1024.8
20260906063904 29 69 3.2 4.8 0.00 0.00 0.00 27 1024.4
20260906063603 29 61 3.2 4.8 0.00 0.00 0.00 28 1024.5
20260906063303 28 59 3.2 4.8 0.00 0.00 0.00 28 1024.5
20260906063003 28 59 3.2 4.8 0.00 0.00 0.00 28 1024.3
20260906062703 29 63 3.2 6.4 0.00 0.00 0.00 28 1024.5
20260906062403 28 68 3.2 6.4 0.00 0.00 0.00 28 1024.4
20260906062103 28 73 3.2 6.4 0.00 0.00 0.00 29 1024.3
20260906062017 28 72 3.2 6.4 0.00 0.00 0.00 29 1024.6
20260906061503 28 79 1.6 4.8 0.00 0.00 0.00 29 1024.3
20260906061203 28 69 3.2 4.8 0.00 0.00 0.00 30 1024.3
20260906060903 28 69 3.2 4.8 0.00 0.00 0.00 31 1024.3
20260906060818 28 66 3.2 4.8 0.00 0.00 0.00 31 1024.2
20260906060303 28 62 1.6 4.8 0.00 0.00 0.00 31 1024.5
20260906060003 28 39 1.6 4.8 0.00 0.00 0.00 29 1024.4
20260906055703 28 19 1.6 4.8 0.00 0.00 0.00 30 1024.2
20260906055617 28 12 1.6 4.8 0.00 0.00 0.00 30 1024.2
20260906055103 27 36 1.6 3.2 0.00 0.00 0.00 31 1024.3
20260906054803 27 41 1.6 3.2 0.00 0.00 0.00 31 1024.3
20260906054503 27 71 1.6 3.2 0.00 0.00 0.00 31 1024.4
20260906054204 27 73 1.6 3.2 0.00 0.00 0.00 31 1024.1
20260906053903 27 53 1.6 3.2 0.00 0.00 0.00 31 1024.1
20260906053603 27 43 1.6 3.2 0.00 0.00 0.00 32 1024.1
20260906053303 26 39 1.6 4.8 0.00 0.00 0.00 32 1024.1
20260906053003 26 48 1.6 4.8 0.00 0.00 0.00 32 1023.9
20260906052703 26 47 1.6 4.8 0.00 0.00 0.00 32 1024.3
20260906052403 26 51 1.6 4.8 0.00 0.00 0.00 32 1024.3
20260906052104 26 51 1.6 4.8 0.00 0.00 0.00 33 1024.3
20260906051803 26 44 1.6 4.8 0.00 0.00 0.00 33 1024.4
20260906051503 26 38 1.6 4.8 0.00 0.00 0.00 33 1024.3
20260906051203 26 33 1.6 4.8 0.00 0.00 0.00 33 1024.3
20260906050903 26 42 1.6 3.2 0.00 0.00 0.00 32 1024.3
20260906050603 26 48 1.6 3.2 0.00 0.00 0.00 33 1024.3
20260906050303 26 52 1.6 3.2 0.00 0.00 0.00 33 1024.2
20260906050003 26 60 1.6 3.2 0.00 0.00 0.00 32 1024.3
20260906045703 26 67 1.6 3.2 0.00 0.00 0.00 33 1024.3
20260906045403 25 73 1.6 4.8 0.00 0.00 0.00 33 1024.3
20260906045103 25 77 1.6 4.8 0.00 0.00 0.00 34 1024.2
20260906044803 25 76 1.6 4.8 0.00 0.00 0.00 34 1024.3
20260906044503 25 75 1.6 4.8 0.00 0.00 0.00 34 1024.0
20260906044203 25 75 1.6 4.8 0.00 0.00 0.00 34 1024.3
20260906043903 25 69 3.2 4.8 0.00 0.00 0.00 34 1024.2
20260906043603 25 66 3.2 6.4 0.00 0.00 0.00 34 1024.2
20260906043303 24 65 3.2 6.4 0.00 0.00 0.00 35 1024.0
20260906043003 24 64 3.2 6.4 0.00 0.00 0.00 35 1024.2
20260906042704 24 69 1.6 4.8 0.00 0.00 0.00 35 1023.9
20260906042617 24 67 3.2 4.8 0.00 0.00 0.00 35 1023.9
20260906042103 24 56 1.6 4.8 0.00 0.00 0.00 35 1024.0
20260906041803 24 58 1.6 4.8 0.00 0.00 0.00 35 1023.8
20260906041504 24 63 1.6 4.8 0.00 0.00 0.00 35 1023.7
20260906041203 24 60 1.6 3.2 0.00 0.00 0.00 35 1023.7
20260906040903 24 60 1.6 6.4 0.00 0.00 0.00 35 1023.7
20260906040604 24 60 3.2 6.4 0.00 0.00 0.00 35 1023.9
20260906040303 24 59 3.2 6.4 0.00 0.00 0.00 35 1023.8
20260906040003 24 59 3.2 6.4 0.00 0.00 0.00 35 1023.7
20260906035618 24 53 1.6 6.4 0.00 0.00 0.00 35 1023.7
20260906035103 24 54 3.2 6.4 0.00 0.00 0.00 35 1023.9
20260906034804 24 53 4.8 6.4 0.00 0.00 0.00 35 1023.9
20260906034718 24 53 4.8 6.4 0.00 0.00 0.00 35 1023.8
20260906034203 24 58 4.8 6.4 0.00 0.00 0.00 35 1023.9
20260906033903 24 61 4.8 9.7 0.00 0.00 0.00 35 1023.5
20260906033604 25 63 4.8 9.7 0.00 0.00 0.00 35 1023.3
20260906033304 25 64 3.2 9.7 0.00 0.00 0.00 35 1023.5
20260906033003 25 63 3.2 6.4 0.00 0.00 0.00 35 1023.5
20260906032703 25 63 3.2 6.4 0.00 0.00 0.00 35 1023.8
20260906032403 25 65 4.8 9.7 0.00 0.00 0.00 34 1023.4
20260906032103 25 63 4.8 9.7 0.00 0.00 0.00 35 1023.5
20260906031803 25 61 3.2 9.7 0.00 0.00 0.00 34 1023.5
20260906031503 25 56 3.2 4.8 0.00 0.00 0.00 34 1023.5
20260906031203 25 53 3.2 6.4 0.00 0.00 0.00 35 1023.3
20260906030903 25 53 4.8 6.4 0.00 0.00 0.00 35 1023.5
20260906030603 25 56 4.8 6.4 0.00 0.00 0.00 35 1023.4
20260906030517 25 57 4.8 6.4 0.00 0.00 0.00 35 1023.5
20260906030004 25 54 4.8 6.4 0.00 0.00 0.00 35 1023.4
20260906025703 25 54 4.8 9.7 0.00 0.00 0.00 35 1023.7
20260906025403 25 52 4.8 9.7 0.00 0.00 0.00 35 1023.2
20260906025103 25 56 3.2 9.7 0.00 0.00 0.00 35 1023.2
20260906024803 25 54 3.2 6.4 0.00 0.00 0.00 35 1023.1
20260906024503 25 50 1.6 6.4 0.00 0.00 0.00 35 1023.2
20260906024203 25 50 3.2 6.4 0.00 0.00 0.00 35 1023.1
20260906023903 25 50 3.2 6.4 0.00 0.00 0.00 34 1022.9
20260906023603 25 60 3.2 6.4 0.00 0.00 0.00 35 1023.0
20260906023518 25 60 3.2 6.4 0.00 0.00 0.00 35 1023.0
20260906023003 25 61 3.2 6.4 0.00 0.00 0.00 35 1023.1
20260906022703 25 63 3.2 6.4 0.00 0.00 0.00 34 1023.0
20260906022403 25 63 3.2 6.4 0.00 0.00 0.00 35 1023.2
20260906022103 25 64 3.2 6.4 0.00 0.00 0.00 34 1023.0
20260906021803 25 60 3.2 6.4 0.00 0.00 0.00 34 1023.0
20260906021717 25 59 3.2 6.4 0.00 0.00 0.00 34 1022.8
20260906021203 25 58 3.2 6.4 0.00 0.00 0.00 34 1023.0
20260906020903 25 61 3.2 6.4 0.00 0.00 0.00 34 1023.1
20260906020603 25 65 3.2 4.8 0.00 0.00 0.00 34 1023.1
20260906020303 25 67 1.6 4.8 0.00 0.00 0.00 34 1023.0
20260906020218 25 67 1.6 4.8 0.00 0.00 0.00 34 1023.0
20260906015703 25 56 1.6 4.8 0.00 0.00 0.00 34 1023.2
20260906015404 25 53 3.2 6.4 0.00 0.00 0.00 34 1023.0
20260906015317 25 51 3.2 6.4 0.00 0.00 0.00 34 1023.1
20260906014804 25 48 3.2 6.4 0.00 0.00 0.00 34 1023.2
20260906014503 25 40 3.2 6.4 0.00 0.00 0.00 34 1023.2
20260906014203 25 26 1.6 4.8 0.00 0.00 0.00 34 1023.0
20260906013903 25 36 1.6 3.2 0.00 0.00 0.00 34 1023.7
20260906013603 25 49 3.2 3.2 0.00 0.00 0.00 34 1023.3
20260906013303 25 64 1.6 3.2 0.00 0.00 0.00 34 1023.3
20260906013003 25 66 1.6 3.2 0.00 0.00 0.00 34 1023.0
20260906012703 25 61 1.6 3.2 0.00 0.00 0.00 34 1023.2
20260906012403 25 61 1.6 3.2 0.00 0.00 0.00 34 1023.2
20260906012317 25 61 1.6 3.2 0.00 0.00 0.00 34 1023.2
20260906011803 25 62 1.6 3.2 0.00 0.00 0.00 34 1023.2
20260906011503 25 64 1.6 3.2 0.00 0.00 0.00 34 1023.4
20260906011203 25 64 1.6 3.2 0.00 0.00 0.00 34 1023.3
20260906010903 25 59 1.6 4.8 0.00 0.00 0.00 34 1023.7
20260906010818 25 59 1.6 4.8 0.00 0.00 0.00 34 1023.7
20260906010303 25 47 3.2 4.8 0.00 0.00 0.00 34 1023.3
20260906010003 25 28 3.2 4.8 0.00 0.00 0.00 34 1023.4
20260906005703 25 12 1.6 4.8 0.00 0.00 0.00 34 1023.5
20260906005617 25 6 1.6 4.8 0.00 0.00 0.00 34 1023.3
20260906005317 25 348 1.6 3.2 0.00 0.00 0.00 34 1023.4
20260906005017 25 342 1.6 3.2 0.00 0.00 0.00 33 1023.3
20260906004503 25 1 1.6 3.2 0.00 0.00 0.00 34 1023.4
20260906004203 25 14 1.6 3.2 0.00 0.00 0.00 34 1023.3
20260906003903 25 35 1.6 3.2 0.00 0.00 0.00 33 1023.3
20260906003603 25 41 1.6 4.8 0.00 0.00 0.00 33 1023.3
20260906003303 25 31 1.6 4.8 0.00 0.00 0.00 33 1023.2
20260906003003 25 11 1.6 4.8 0.00 0.00 0.00 33 1023.3
20260906002703 25 353 1.6 3.2 0.00 0.00 0.00 33 1023.3
20260906002403 25 351 1.6 3.2 0.00 0.00 0.00 34 1023.4
20260906002103 25 17 1.6 3.2 0.00 0.00 0.00 33 1023.5
20260906001803 25 44 1.6 3.2 0.00 0.00 0.00 33 1023.5
20260906001504 25 51 1.6 4.8 0.00 0.00 0.00 33 1023.4
20260906001203 25 57 3.2 4.8 0.00 0.00 0.00 33 1023.4
20260906000903 25 60 3.2 6.4 0.00 0.00 0.00 33 1023.3
20260906000603 25 69 3.2 6.4 0.00 0.00 0.00 33 1023.2
20260906000304 25 73 3.2 6.4 0.00 0.00 0.00 33 1023.5
20260906000003 25 76 3.2 4.8 0.00 0.00 0.00 33 1023.3
20260905235703 26 72 3.2 6.4 0.00 0.00 0.00 33 1023.1
20260905235403 26 64 3.2 6.4 0.00 0.00 0.00 33 1023.4
20260905235103 26 63 4.8 9.7 0.00 0.00 0.00 33 1023.4
20260905234803 26 60 4.8 9.7 0.00 0.00 0.00 33 1023.5
20260905234503 26 59 4.8 9.7 0.00 0.00 0.00 33 1023.4
20260905234203 26 59 4.8 9.7 0.00 0.00 0.00 33 1023.5
20260905233903 26 59 3.2 9.7 0.00 0.00 0.00 33 1023.7
20260905233818 26 61 3.2 9.7 0.00 0.00 0.00 33 1023.3
20260905233517 26 65 3.2 9.7 0.00 0.00 0.00 33 1023.5
20260905233217 26 77 3.2 4.8 0.00 0.00 0.00 33 1023.8
20260905232703 26 83 1.6 4.8 0.00 0.00 0.00 32 1023.8
20260905232403 27 74 1.6 3.2 0.00 0.00 0.00 32 1023.8
20260905232103 27 55 1.6 3.2 0.00 0.00 0.00 32 1023.7
20260905232018 27 53 1.6 3.2 0.00 0.00 0.00 32 1023.7
20260905231503 26 35 1.6 3.2 0.00 0.00 0.00 32 1023.9
20260905231203 26 42 1.6 3.2 0.00 0.00 0.00 32 1024.0
20260905230903 26 63 1.6 3.2 0.00 0.00 0.00 32 1023.9
20260905230603 26 67 1.6 3.2 0.00 0.00 0.00 32 1023.9
20260905230304 26 68 1.6 3.2 0.00 0.00 0.00 32 1023.7
20260905230217 26 68 1.6 3.2 0.00 0.00 0.00 32 1024.0
20260905225919 26 68 1.6 3.2 0.00 0.00 0.00 32 1023.8
20260905225403 26 65 1.6 3.2 0.00 0.00 0.00 32 1024.0
20260905225318 26 65 1.6 3.2 0.00 0.00 0.00 32 1023.9
20260905224803 26 60 3.2 4.8 0.00 0.00 0.00 32 1024.0
20260905224503 26 56 3.2 4.8 0.00 0.00 0.00 32 1024.1
20260905224203 26 56 3.2 4.8 0.00 0.00 0.00 32 1024.0
20260905223903 27 57 3.2 4.8 0.00 0.00 0.00 31 1024.2
20260905223817 27 57 3.2 4.8 0.00 0.00 0.00 31 1024.2
20260905223303 27 67 1.6 4.8 0.00 0.00 0.00 32 1024.1
20260905223004 27 68 1.6 3.2 0.00 0.00 0.00 32 1024.2
20260905222703 27 68 1.6 3.2 0.00 0.00 0.00 31 1024.3
20260905222618 27 68 1.6 3.2 0.00 0.00 0.00 32 1024.0
20260905222104 27 68 1.6 3.2 0.00 0.00 0.00 31 1024.1
20260905221803 27 68 0.0 3.2 0.00 0.00 0.00 32 1024.1
20260905221503 27 68 0.0 3.2 0.00 0.00 0.00 32 1024.0
20260905221203 27 71 1.6 3.2 0.00 0.00 0.00 31 1024.0
20260905221117 27 70 1.6 3.2 0.00 0.00 0.00 31 1024.0
20260905220603 27 63 3.2 6.4 0.00 0.00 0.00 31 1023.9
20260905220303 27 61 3.2 6.4 0.00 0.00 0.00 31 1024.0
20260905220003 27 59 3.2 4.8 0.00 0.00 0.00 31 1024.3
20260905215703 27 57 3.2 4.8 0.00 0.00 0.00 31 1024.1
20260905215403 27 49 1.6 4.8 0.00 0.00 0.00 31 1024.3
20260905215103 27 44 1.6 4.8 0.00 0.00 0.00 31 1024.2
20260905214803 27 39 1.6 4.8 0.00 0.00 0.00 31 1024.1
20260905214717 27 35 1.6 4.8 0.00 0.00 0.00 31 1024.1
20260905214203 27 327 0.0 1.6 0.00 0.00 0.00 32 1024.0
20260905213903 27 333 0.0 1.6 0.00 0.00 0.00 32 1024.2
20260905213817 27 333 0.0 1.6 0.00 0.00 0.00 32 1024.1
20260905213519 27 23 0.0 1.6 0.00 0.00 0.00 32 1024.2
20260905213003 27 10 0.0 1.6 0.00 0.00 0.00 32 1024.2
20260905212704 27 8 1.6 3.2 0.00 0.00 0.00 31 1024.1
20260905212403 27 358 1.6 3.2 0.00 0.00 0.00 32 1024.2
20260905212103 27 8 1.6 3.2 0.00 0.00 0.00 32 1024.1
20260905211803 27 4 1.6 3.2 0.00 0.00 0.00 32 1024.2
20260905211504 27 7 1.6 3.2 0.00 0.00 0.00 32 1024.2
20260905211203 27 339 1.6 3.2 0.00 0.00 0.00 32 1024.1
20260905210904 27 316 0.0 3.2 0.00 0.00 0.00 32 1024.3
20260905210603 27 312 0.0 3.2 0.00 0.00 0.00 32 1024.0
20260905210518 27 310 0.0 3.2 0.00 0.00 0.00 32 1024.2
20260905210218 28 295 0.0 3.2 0.00 0.00 0.00 32 1024.2
20260905205703 28 256 1.6 4.8 0.00 0.00 0.00 31 1024.2
20260905205618 28 254 1.6 4.8 0.00 0.00 0.00 31 1024.2
20260905205103 28 248 1.6 4.8 0.00 0.00 0.00 31 1024.0
20260905205017 28 247 1.6 4.8 0.00 0.00 0.00 31 1024.2
20260905204503 28 246 0.0 3.2 0.00 0.00 0.00 31 1024.2
20260905204203 28 13 0.0 1.6 0.00 0.00 0.00 31 1024.1
20260905203903 28 26 0.0 1.6 0.00 0.00 0.00 31 1024.3
20260905203816 28 26 0.0 1.6 0.00 0.00 0.00 30 1024.1
20260905203303 28 26 1.6 3.2 0.00 0.00 0.00 31 1024.2
20260905203003 28 26 0.0 3.2 0.00 0.00 0.00 31 1024.1
20260905202703 28 28 0.0 3.2 0.00 0.00 0.00 31 1024.1
20260905202403 28 38 0.0 1.6 0.00 0.00 0.00 31 1024.2
20260905202103 28 39 0.0 1.6 0.00 0.00 0.00 31 1024.2
20260905201803 28 44 0.0 1.6 0.00 0.00 0.00 31 1024.0
20260905201503 28 50 0.0 1.6 0.00 0.00 0.00 30 1024.0
20260905201419 28 50 0.0 1.6 0.00 0.00 0.00 30 1024.2
20260905201118 28 50 0.0 1.6 0.00 0.00 0.00 30 1024.2
20260905200603 28 50 0.0 1.6 0.00 0.00 0.00 29 1024.2
20260905200304 28 50 0.0 1.6 0.00 0.00 0.00 29 1024.2
20260905200218 28 50 0.0 1.6 0.00 0.00 0.00 29 1024.1
20260905195703 28 50 0.0 1.6 0.00 0.00 0.00 29 1024.1
20260905195404 28 50 0.0 1.6 0.00 0.00 0.00 29 1024.3
20260905195103 28 50 0.0 1.6 0.00 0.00 0.00 29 1024.3
20260905194803 28 50 0.0 1.6 0.00 0.00 0.00 29 1024.3
20260905194503 28 50 0.0 1.6 0.00 0.00 0.00 29 1024.5
20260905194203 28 50 0.0 1.6 0.00 0.00 0.00 29 1024.1
20260905193903 28 50 0.0 1.6 0.00 0.00 0.00 29 1024.3
20260905193603 28 50 0.0 1.6 0.00 0.00 0.00 29 1024.2
20260905193303 28 49 0.0 1.6 0.00 0.00 0.00 29 1024.1
20260905193217 28 49 0.0 1.6 0.00 0.00 0.00 29 1024.2
20260905192703 28 50 1.6 1.6 0.00 0.00 0.00 29 1024.2
20260905192403 28 51 0.0 1.6 0.00 0.00 0.00 29 1024.3
20260905192103 28 52 0.0 1.6 0.00 0.00 0.00 29 1024.3
20260905191803 28 54 0.0 1.6 0.00 0.00 0.00 29 1024.3
20260905191503 28 55 1.6 3.2 0.00 0.00 0.00 29 1024.0
20260905191203 28 49 1.6 3.2 0.00 0.00 0.00 28 1024.1
20260905190903 28 19 1.6 4.8 0.00 0.00 0.00 29 1024.1
20260905190603 28 360 1.6 4.8 0.00 0.00 0.00 28 1024.4
20260905190303 28 355 1.6 4.8 0.00 0.00 0.00 28 1024.3
20260905190003 28 359 1.6 4.8 0.00 0.00 0.00 29 1024.2
20260905185704 28 23 1.6 4.8 0.00 0.00 0.00 29 1024.4
20260905185403 28 42 1.6 6.4 0.00 0.00 0.00 29 1024.1
20260905185103 28 55 3.2 6.4 0.00 0.00 0.00 29 1024.2
20260905184803 29 57 3.2 6.4 0.00 0.00 0.00 29 1023.9
20260905184503 29 53 3.2 6.4 0.00 0.00 0.00 29 1024.2
20260905184203 29 49 3.2 6.4 0.00 0.00 0.00 29 1024.1
20260905183903 29 49 3.2 6.4 0.00 0.00 0.00 29 1024.1
20260905183818 29 47 3.2 6.4 0.00 0.00 0.00 29 1024.1
20260905183303 29 36 1.6 6.4 0.00 0.00 0.00 30 1024.0
20260905183217 29 35 1.6 6.4 0.00 0.00 0.00 29 1024.3
20260905182703 29 31 1.6 4.8 0.00 0.00 0.00 29 1024.2
20260905182404 29 21 1.6 4.8 0.00 0.00 0.00 30 1023.9
20260905182103 29 34 1.6 9.7 0.00 0.00 0.00 29 1024.1
20260905181803 29 45 3.2 9.7 0.00 0.00 0.00 29 1024.0
20260905181504 29 54 3.2 9.7 0.00 0.00 0.00 29 1023.9
20260905181204 29 53 3.2 9.7 0.00 0.00 0.00 29 1023.8
20260905180903 29 50 3.2 6.4 0.00 0.00 0.00 29 1023.9
20260905180603 29 52 3.2 6.4 0.00 0.00 0.00 29 1023.9
20260905180303 29 48 3.2 6.4 0.00 0.00 0.00 29 1023.9
20260905180003 29 46 3.2 6.4 0.00 0.00 0.00 29 1023.9
20260905175703 29 40 1.6 6.4 0.00 0.00 0.00 29 1023.9
20260905175404 29 44 1.6 6.4 0.00 0.00 0.00 29 1023.8
20260905175103 29 47 1.6 6.4 0.00 0.00 0.00 28 1023.8
20260905175018 30 48 1.6 6.4 0.00 0.00 0.00 29 1023.8
20260905174504 30 56 4.8 11.3 0.00 0.00 0.00 28 1023.5
20260905174204 30 56 4.8 12.9 0.00 0.00 0.00 28 1023.8
20260905174118 30 55 6.4 12.9 0.00 0.00 0.00 28 1023.5
20260905173603 30 53 4.8 12.9 0.00 0.00 0.00 28 1023.5
20260905173303 30 54 4.8 12.9 0.00 0.00 0.00 28 1023.7
20260905173003 30 56 4.8 12.9 0.00 0.00 0.00 28 1023.5
20260905172703 30 60 4.8 12.9 0.00 0.00 0.00 28 1023.5
20260905172403 30 60 6.4 12.9 0.00 0.00 0.00 28 1023.5
20260905172103 30 52 4.8 12.9 0.00 0.00 0.00 28 1023.4
20260905171804 30 51 6.4 14.5 0.00 0.00 0.00 29 1023.4
20260905171718 30 50 6.4 14.5 0.00 0.00 0.00 29 1023.2
20260905171203 30 56 8.0 16.1 0.00 0.00 0.00 28 1023.2
20260905170903 30 59 6.4 16.1 0.00 0.00 0.00 28 1023.2
20260905170604 30 59 6.4 16.1 0.00 0.00 0.00 29 1023.1
20260905170303 30 59 6.4 14.5 0.00 0.00 0.00 28 1023.3
20260905170216 30 59 6.4 14.5 0.00 0.00 0.00 28 1023.1
20260905165916 30 60 6.4 14.5 0.00 0.00 0.00 28 1023.2
20260905165403 30 55 6.4 12.9 0.00 0.00 0.00 28 1023.0
20260905165318 30 54 6.4 12.9 0.00 0.00 0.00 28 1023.1
20260905164803 31 51 4.8 11.3 0.00 0.00 0.00 27 1023.1
20260905164503 31 52 6.4 12.9 0.00 0.00 0.00 26 1023.1
20260905164203 31 53 6.4 17.7 0.00 0.00 0.00 26 1023.2
20260905163904 31 48 8.0 17.7 0.00 0.00 0.00 26 1022.9
20260905163603 31 45 6.4 17.7 0.00 0.00 0.00 26 1023.0
20260905163517 31 42 6.4 17.7 0.00 0.00 0.00 26 1023.0
20260905163003 31 41 4.8 14.5 0.00 0.00 0.00 24 1023.1
20260905162703 31 46 4.8 12.9 0.00 0.00 0.00 24 1023.2
20260905162618 31 48 4.8 16.1 0.00 0.00 0.00 25 1023.3
20260905162318 31 48 6.4 16.1 0.00 0.00 0.00 24 1023.2
20260905162017 31 49 6.4 16.1 0.00 0.00 0.00 24 1023.2
20260905161503 31 39 6.4 16.1 0.00 0.00 0.00 24 1023.4
20260905161203 31 41 6.4 16.1 0.00 0.00 0.00 24 1023.3
20260905160903 31 37 8.0 22.5 0.00 0.00 0.00 24 1023.2
20260905160603 31 38 8.0 22.5 0.00 0.00 0.00 24 1023.1
20260905160303 31 42 8.0 22.5 0.00 0.00 0.00 24 1023.2
20260905160004 31 42 8.0 16.1 0.00 0.00 0.00 24 1023.5
20260905155703 32 47 6.4 14.5 0.00 0.00 0.00 24 1023.4
20260905155403 32 46 6.4 16.1 0.00 0.00 0.00 24 1023.2
20260905155103 32 46 6.4 16.1 0.00 0.00 0.00 24 1023.3
20260905155017 32 46 6.4 16.1 0.00 0.00 0.00 24 1023.2
20260905154503 32 48 6.4 16.1 0.00 0.00 0.00 23 1023.1
20260905154203 32 46 6.4 16.1 0.00 0.00 0.00 23 1023.1
20260905154117 32 41 6.4 16.1 0.00 0.00 0.00 23 1023.2
20260905153603 32 36 6.4 14.5 0.00 0.00 0.00 23 1023.3
20260905153304 32 36 6.4 14.5 0.00 0.00 0.00 24 1023.4
20260905153218 32 35 6.4 14.5 0.00 0.00 0.00 24 1023.2
20260905152918 32 38 6.4 14.5 0.00 0.00 0.00 24 1023.3
20260905152618 32 31 8.0 16.1 0.00 0.00 0.00 23 1023.3
20260905152103 32 30 8.0 16.1 0.00 0.00 0.00 24 1023.5
20260905151803 32 30 8.0 16.1 0.00 0.00 0.00 24 1023.4
20260905151503 32 31 8.0 17.7 0.00 0.00 0.00 24 1023.3
20260905151204 32 28 8.0 17.7 0.00 0.00 0.00 24 1023.3
20260905150903 32 32 8.0 17.7 0.00 0.00 0.00 23 1023.2
20260905150603 32 29 6.4 16.1 0.00 0.00 0.00 23 1023.1
20260905150304 32 33 6.4 16.1 0.00 0.00 0.00 23 1023.7
20260905150003 32 33 6.4 14.5 0.00 0.00 0.00 23 1023.1
20260905145703 32 27 6.4 16.1 0.00 0.00 0.00 23 1023.3
20260905145403 32 27 6.4 16.1 0.00 0.00 0.00 23 1023.2
20260905145103 32 34 6.4 16.1 0.00 0.00 0.00 23 1023.3
20260905144804 32 38 6.4 14.5 0.00 0.00 0.00 23 1023.1
20260905144503 32 32 6.4 14.5 0.00 0.00 0.00 23 1023.2
20260905144203 32 12 6.4 20.9 0.00 0.00 0.00 23 1023.3
20260905143904 32 7 6.4 20.9 0.00 0.00 0.00 23 1023.1
20260905143604 32 9 8.0 20.9 0.00 0.00 0.00 24 1023.3
20260905143303 32 14 8.0 20.9 0.00 0.00 0.00 24 1023.1
20260905143003 32 19 9.7 25.7 0.00 0.00 0.00 24 1023.2
20260905142917 32 23 9.7 25.7 0.00 0.00 0.00 24 1023.2
20260905142403 32 27 9.7 25.7 0.00 0.00 0.00 23 1023.1
20260905142103 32 16 9.7 22.5 0.00 0.00 0.00 23 1023.0
20260905141803 32 7 9.7 22.5 0.00 0.00 0.00 23 1023.4
20260905141503 32 2 11.3 24.1 0.00 0.00 0.00 23 1023.3
20260905141203 32 10 9.7 24.1 0.00 0.00 0.00 23 1023.1
20260905140903 32 18 9.7 24.1 0.00 0.00 0.00 23 1023.2
20260905140818 32 10 11.3 24.1 0.00 0.00 0.00 23 1023.0
20260905140304 32 359 9.7 24.1 0.00 0.00 0.00 23 1023.0
20260905140004 33 351 9.7 24.1 0.00 0.00 0.00 23 1023.2
20260905135703 32 357 9.7 22.5 0.00 0.00 0.00 22 1023.1
20260905135403 33 360 9.7 20.9 0.00 0.00 0.00 22 1023.1
20260905135103 33 358 9.7 20.9 0.00 0.00 0.00 22 1023.2
20260905134805 33 341 8.0 20.9 0.00 0.00 0.00 23 1023.0
20260905134504 33 341 8.0 20.9 0.00 0.00 0.00 22 1023.0
20260905134203 33 334 4.8 16.1 0.00 0.00 0.00 22 1023.0
20260905133903 33 4 6.4 22.5 0.00 0.00 0.00 22 1023.1
20260905133603 33 355 8.0 22.5 0.00 0.00 0.00 23 1023.3
20260905133303 32 357 8.0 22.5 0.00 0.00 0.00 24 1023.0
20260905133003 33 359 8.0 22.5 0.00 0.00 0.00 23 1023.2
20260905132703 32 22 6.4 17.7 0.00 0.00 0.00 24 1023.2
20260905132403 32 44 6.4 17.7 0.00 0.00 0.00 25 1023.2
20260905132104 32 40 8.0 17.7 0.00 0.00 0.00 25 1023.4
20260905131803 32 37 6.4 16.1 0.00 0.00 0.00 25 1023.2
20260905131503 33 41 4.8 12.9 0.00 0.00 0.00 25 1023.2
20260905131203 33 45 6.4 16.1 0.00 0.00 0.00 24 1023.2
20260905130903 32 55 8.0 22.5 0.00 0.00 0.00 25 1023.2
20260905130603 32 58 9.7 22.5 0.00 0.00 0.00 25 1023.4
20260905130517 32 58 9.7 22.5 0.00 0.00 0.00 25 1023.4
20260905130003 32 61 9.7 22.5 0.00 0.00 0.00 25 1023.4
20260905125704 32 64 11.3 22.5 0.00 0.00 0.00 25 1023.2
20260905125403 32 72 11.3 22.5 0.00 0.00 0.00 26 1023.2
20260905125103 32 67 11.3 22.5 0.00 0.00 0.00 25 1023.3
20260905124803 32 60 9.7 20.9 0.00 0.00 0.00 25 1023.5
20260905124504 32 60 9.7 24.1 0.00 0.00 0.00 24 1023.3
20260905124203 32 66 9.7 24.1 0.00 0.00 0.00 24 1023.2
20260905123903 32 72 9.7 24.1 0.00 0.00 0.00 24 1023.4
20260905123603 32 70 9.7 24.1 0.00 0.00 0.00 25 1023.5
20260905123303 33 66 9.7 22.5 0.00 0.00 0.00 24 1023.3
20260905123003 32 65 9.7 22.5 0.00 0.00 0.00 24 1023.3
20260905122703 32 66 11.3 22.5 0.00 0.00 0.00 24 1023.3
20260905122403 32 64 9.7 22.5 0.00 0.00 0.00 24 1023.5
20260905122103 32 54 11.3 22.5 0.00 0.00 0.00 25 1023.5
20260905122018 32 54 11.3 22.5 0.00 0.00 0.00 25 1023.5
20260905121503 32 61 11.3 22.5 0.00 0.00 0.00 25 1023.4
20260905121203 32 74 11.3 25.7 0.00 0.00 0.00 25 1023.5
20260905120903 32 82 11.3 25.7 0.00 0.00 0.00 26 1023.5
20260905120603 32 70 12.9 27.4 0.00 0.00 0.00 25 1024.0
20260905120304 32 63 11.3 27.4 0.00 0.00 0.00 26 1023.8
20260905120003 32 47 9.7 27.4 0.00 0.00 0.00 26 1023.9
20260905115703 33 50 8.0 27.4 0.00 0.00 0.00 25 1023.8
20260905115403 32 54 8.0 20.9 0.00 0.00 0.00 26 1023.8
20260905115103 32 55 9.7 27.4 0.00 0.00 0.00 26 1023.8
20260905115018 32 56 9.7 27.4 0.00 0.00 0.00 26 1023.9
20260905114718 32 55 11.3 27.4 0.00 0.00 0.00 26 1024.0
20260905114203 32 61 11.3 27.4 0.00 0.00 0.00 26 1023.9
20260905113903 32 71 11.3 25.7 0.00 0.00 0.00 26 1024.0
20260905113603 31 69 12.9 25.7 0.00 0.00 0.00 27 1023.7
20260905113303 31 75 12.9 25.7 0.00 0.00 0.00 26 1024.0
20260905113003 32 80 12.9 30.6 0.00 0.00 0.00 27 1024.0
20260905112703 32 79 12.9 30.6 0.00 0.00 0.00 27 1024.1
20260905112403 32 74 11.3 30.6 0.00 0.00 0.00 27 1024.1
20260905112103 32 62 9.7 22.5 0.00 0.00 0.00 26 1023.9
20260905111803 32 55 11.3 24.1 0.00 0.00 0.00 26 1023.8
20260905111503 31 58 11.3 24.1 0.00 0.00 0.00 27 1024.1
20260905111204 31 63 11.3 24.1 0.00 0.00 0.00 27 1024.0
20260905110903 32 68 11.3 24.1 0.00 0.00 0.00 27 1024.1
20260905110603 32 73 9.7 20.9 0.00 0.00 0.00 26 1024.1
20260905110517 32 72 9.7 20.9 0.00 0.00 0.00 26 1024.1
20260905110004 32 77 11.3 27.4 0.00 0.00 0.00 27 1023.9
20260905105703 31 74 12.9 27.4 0.00 0.00 0.00 27 1023.8
20260905105403 31 69 12.9 27.4 0.00 0.00 0.00 27 1024.1
20260905105103 31 68 12.9 27.4 0.00 0.00 0.00 27 1024.0
20260905104803 31 65 12.9 25.7 0.00 0.00 0.00 27 1024.0
20260905104503 31 72 12.9 25.7 0.00 0.00 0.00 27 1023.9
20260905104203 31 71 12.9 25.7 0.00 0.00 0.00 27 1024.2
20260905104117 31 69 12.9 25.7 0.00 0.00 0.00 28 1024.0
20260905103603 31 71 12.9 33.8 0.00 0.00 0.00 27 1024.1
20260905103303 31 72 12.9 33.8 0.00 0.00 0.00 27 1023.9
20260905103003 31 71 12.9 33.8 0.00 0.00 0.00 27 1024.1
20260905102703 32 62 11.3 24.1 0.00 0.00 0.00 26 1023.8
20260905102403 32 61 9.7 25.7 0.00 0.00 0.00 27 1024.0
20260905102104 31 53 11.3 25.7 0.00 0.00 0.00 27 1023.9
20260905101804 31 61 12.9 25.7 0.00 0.00 0.00 27 1024.1
20260905101503 31 61 14.5 35.4 0.00 0.00 0.00 27 1024.1
20260905101203 31 64 14.5 35.4 0.00 0.00 0.00 27 1024.2
20260905100903 31 59 12.9 35.4 0.00 0.00 0.00 26 1024.2
20260905100603 32 52 11.3 25.7 0.00 0.00 0.00 26 1024.2
20260905100303 32 54 12.9 33.8 0.00 0.00 0.00 25 1024.0
20260905100218 32 47 11.3 33.8 0.00 0.00 0.00 26 1024.2
20260905095703 31 59 12.9 33.8 0.00 0.00 0.00 27 1024.1
20260905095403 31 62 11.3 25.7 0.00 0.00 0.00 26 1024.2
20260905095103 31 59 11.3 25.7 0.00 0.00 0.00 26 1024.1
20260905094803 31 54 9.7 24.1 0.00 0.00 0.00 27 1024.2
20260905094503 31 52 11.3 24.1 0.00 0.00 0.00 27 1024.1
20260905094203 31 51 12.9 25.7 0.00 0.00 0.00 27 1024.4
20260905093903 31 52 12.9 27.4 0.00 0.00 0.00 27 1024.3
20260905093603 31 54 12.9 27.4 0.00 0.00 0.00 27 1024.3
20260905093518 31 55 12.9 27.4 0.00 0.00 0.00 27 1024.3
20260905093003 31 56 9.7 25.7 0.00 0.00 0.00 27 1024.4
20260905092703 31 39 8.0 24.1 0.00 0.00 0.00 27 1024.3
20260905092403 31 40 8.0 22.5 0.00 0.00 0.00 28 1024.3
20260905092103 31 37 9.7 24.1 0.00 0.00 0.00 28 1024.6
20260905091803 31 38 11.3 24.1 0.00 0.00 0.00 29 1024.5
20260905091504 31 36 11.3 24.1 0.00 0.00 0.00 29 1024.3
20260905091203 31 42 9.7 24.1 0.00 0.00 0.00 29 1024.4
20260905090903 31 46 11.3 29.0 0.00 0.00 0.00 29 1024.4
20260905090603 31 56 12.9 29.0 0.00 0.00 0.00 29 1024.5
20260905090518 31 56 12.9 29.0 0.00 0.00 0.00 29 1024.5
20260905090003 31 44 12.9 29.0 0.00 0.00 0.00 29 1024.8
20260905085703 31 39 11.3 27.4 0.00 0.00 0.00 29 1024.6
20260905085403 31 38 9.7 27.4 0.00 0.00 0.00 29 1024.3
20260905085317 31 41 9.7 27.4 0.00 0.00 0.00 29 1024.5
20260905085017 31 44 11.3 27.4 0.00 0.00 0.00 29 1024.6
20260905084503 31 37 9.7 27.4 0.00 0.00 0.00 30 1024.5
20260905084203 31 34 9.7 27.4 0.00 0.00 0.00 29 1024.5
20260905083903 31 41 9.7 24.1 0.00 0.00 0.00 29 1024.5
20260905083603 30 43 9.7 24.1 0.00 0.00 0.00 29 1024.4
20260905083303 30 44 9.7 24.1 0.00 0.00 0.00 30 1024.5